This is the latest recevied weather packets stored in our database for station/object W4OCD. If no packets are shown the sender has not sent any weather packets the latest 10 day(s).
| Time | Temp. | Humidity | Pressure | Rain* | Wind** | Luminosity | Snow |
|---|---|---|---|---|---|---|---|
| 1777449559 | 17.78° C | 99% | 1015.6 hPa | 0 mm | - | 0 W/m² | - |
| 1777449254 | 17.78° C | 99% | 1015.5 hPa | 0 mm | - | 0 W/m² | - |
| 1777448950 | 17.78° C | 99% | 1015.7 hPa | 0 mm | - | 0 W/m² | - |
| 1777448345 | 17.78° C | 99% | 1015.8 hPa | 0 mm | - | 0 W/m² | - |
| 1777448041 | 17.78° C | 99% | 1015.9 hPa | 0 mm | - | 0 W/m² | - |
| 1777447736 | 17.78° C | 99% | 1015.9 hPa | 0 mm | - | 0 W/m² | - |
| 1777447432 | 17.78° C | 99% | 1015.9 hPa | 0 mm | - | 0 W/m² | - |
| 1777447129 | 18.33° C | 99% | 1015.8 hPa | 1.78 mm | - | 0 W/m² | - |
| 1777446828 | 17.78° C | 99% | 1016 hPa | 1.78 mm | - | 0 W/m² | - |
| 1777446523 | 17.78° C | 99% | 1016.1 hPa | 1.27 mm | - | 0 W/m² | - |
| 1777446219 | 17.78° C | 99% | 1016.2 hPa | 3.05 mm | - | 0 W/m² | - |
| 1777445917 | 17.78° C | 99% | 1016.4 hPa | 3.05 mm | - | 0 W/m² | - |
| 1777445613 | 17.78° C | 99% | 1016.4 hPa | 3.05 mm | - | 0 W/m² | - |
| 1777445309 | 17.78° C | 99% | 1016.9 hPa | 3.56 mm | - | 0 W/m² | - |
| 1777444701 | 17.78° C | 99% | 1015.9 hPa | 3.05 mm | - | 0 W/m² | - |
| 1777444398 | 17.78° C | 99% | 1016.5 hPa | 3.05 mm | - | 0 W/m² | - |
| 1777444095 | 17.78° C | 99% | 1017.2 hPa | 6.1 mm | - | 0 W/m² | - |
| 1777443790 | 17.78° C | 99% | 1017.7 hPa | 36.58 mm | - | 0 W/m² | - |
| 1777443486 | 18.33° C | 99% | 1018 hPa | 62.48 mm | - | 0 W/m² | - |
| 1777443184 | 18.33° C | 99% | 1018.2 hPa | 36.58 mm | - | 0 W/m² | - |
| 1777442880 | 18.33° C | 99% | 1018.8 hPa | 1.27 mm | - | 0 W/m² | - |
| 1777442576 | 17.78° C | 99% | 1016.7 hPa | 1.27 mm | - | 0 W/m² | - |
| 1777442271 | 17.78° C | 99% | 1014.9 hPa | 1.78 mm | - | 0 W/m² | - |
| 1777441968 | 17.78° C | 99% | 1014.8 hPa | 3.56 mm | - | 0 W/m² | - |
| 1777441664 | 17.78° C | 99% | 1015.3 hPa | 7.87 mm | - | 0 W/m² | - |
* Rain latest hour (hover to see other rain measurements)
** Current wind speed in m/s (hover to see current wind gust speed)